FLOCK 2K-10 (42895 NORAD) Tracking and Keplerian Element Data

This shows tracking and keplerian element data for the satellite.

Feedback or suggestion? Click here.




ElementValue
Catalog42895
NameFLOCK 2K-10
Epoch Orbit27682
Epoch Day166.80623996
Epoch Year2022
RAAN8.296
Inclination96.8017
Eccentricity0.0009331
Argument of Perigee228.2017
Mean Anonmoly131.8465
Mean Motion15.9866716
Decay Rate0.01263063
L11 42895U 17042BY 22166.80623996 .01263063 82738-3 27083-2 0 9996
L22 42895 96.8017 8.2960 0009331 228.2017 131.8465 15.98667160276826



Live tracking and technical data element details for FLOCK 2K-10 (NORAD 42895). FLOCK 2K-10 can be tracked NOW for your location showing map with azimuth and elevation plus other details from your city location.







IsCatalogInMostPopularTable: catalog: 42895, numindb: 608
Update: records affected: 1



GetName: 42895 FLOCK 2K-10

Hit Count: updated at: Tue, 18 Jun 2024 00:18:19 GMT